sat.trackr.live / text

‹ back to catalog

STARLINK-35418

NORAD 65879 · 2025-223AB

PAYLOAD ACTIVE UNKNOWN

§ Identity

Operator
Country
US
Launch date
2025-10-03
Launch site
AFWTR
Launch vehicle
Mass (kg)
RCS (m²)

Purposes: comms

External: N2YO · Heavens-Above · Gunter

§ Orbital elements

Epoch: 2026-09-20T22:56:40.011360Z

Period
93.85 min
Inclination
53.1577°
Eccentricity
0.0000407
Mean motion
15.34428839 rev/d
Perigee alt
462.3 km
Apogee alt
462.9 km
Semi-major
6,840.8 km
B*
7.0823e-4
RAAN
103.5013°
Arg perigee
145.8494°
Mean anomaly
214.2535°
Rev number
5,415

§ Raw data

STARLINK-354181 65879U 25223AB  26263.95601865  .00023650  00000+0  70823-3 0  99962 65879  53.1577 103.5013 0000407 145.8494 214.2535 15.34428839 54158

JSON: /api/v1/satellites/65879 · /tle

For live sub-satellite position, see the globe view (requires WebGL).

§ Visibility from observer

Set your observer location to see the next 7 days of passes ≥ 10°. The values pass through the URL so the page stays shareable.

No JS? Fill the form by hand. The geolocation button needs JavaScript.